Location: Bowman Observatory
(41.0326°N, 73.6210°W)
Time: 16:10:06
(UTC-05:00)

Cosmos 2298 Rocket - Visible Passes

Search period start: 01 February 2015 00:00
Search period end: 11 February 2015 00:00
Orbit: 777 x 784 km, 74.0° (Epoch: 01 February)

Date Brightness Start Highest point End Pass type
(mag) Time Alt. Az. Time Alt. Az. Time Alt. Az.
01 Feb 6.6 06:06:04 10° NNE 06:09:06 16° NE 06:12:20 10° E visible
02 Feb 7.0 05:34:55 10° NE 05:35:20 10° NE 05:36:04 10° NE visible
04 Feb 5.9 06:07:20 10° N 06:11:55 30° ENE 06:16:34 10° ESE visible
05 Feb 6.5 05:34:33 10° N 05:38:19 20° NE 05:42:13 10° ESE visible
06 Feb 6.8 05:02:13 10° NNE 05:04:37 13° NE 05:07:14 10° E visible
07 Feb 4.7 06:09:14 10° NNW 06:14:28 59° ENE 06:19:42 10° SSE visible
08 Feb 5.5 05:36:07 10° N 05:41:01 38° ENE 05:45:58 10° SE visible
09 Feb 6.1 05:03:11 10° N 05:07:29 25° ENE 05:11:53 10° ESE visible
09 Feb 5.5 19:41:48 10° S 19:43:53 24° S 19:43:53 24° S visible
10 Feb 6.6 04:30:30 10° NNE 04:33:51 17° NE 04:37:22 10° E visible
10 Feb 4.0 06:11:31 10° NNW 06:16:48 66° WSW 06:22:01 10° S visible
10 Feb 4.5 19:08:51 10° S 19:13:01 39° SE 19:13:01 39° SE visible
10 Feb 6.5 20:51:59 10° WSW 20:53:40 17° W 20:53:40 17° W visible
